FW9848 Weather Reports


Display with metric or nautical units.
time (UTC)temp
F
wind
direction
speed
MPH
gust
MPH
rain 1hr
in
rain 24hr
in
rain mn
in
humidity
%
barometer
mb
20260510051550 77 0 0.0 0.0 0.00 0.01 0.00 72 1012.8
20260510050055 78 0 0.0 0.0 0.00 0.01 0.00 70 1012.9
20260510044553 79 0 0.0 0.0 0.00 0.01 0.01 69 1012.7
20260510043051 79 0 0.0 0.0 0.00 0.01 0.01 67 1012.7
20260510041605 79 0 0.0 0.0 0.00 0.01 0.01 68 1012.6
20260510040053 79 0 0.0 0.0 0.00 0.01 0.01 67 1012.4
20260510034555 80 0 0.0 0.0 0.00 0.01 0.01 67 1012.3
20260510033055 80 0 0.0 0.0 0.00 0.01 0.01 66 1012.2
20260510031557 80 0 0.0 0.0 0.00 0.01 0.01 66 1012.1
20260510030053 81 0 0.0 0.0 0.00 0.01 0.01 65 1011.9
20260510024609 81 0 0.0 0.0 0.00 0.01 0.01 65 1011.8
20260510023058 82 0 0.0 0.0 0.00 0.01 0.01 64 1011.6
20260510021558 82 0 0.0 0.0 0.00 0.01 0.01 64 1011.4
20260510020056 82 0 0.0 0.0 0.00 0.01 0.01 63 1011.3
20260510014557 83 0 0.0 0.0 0.00 0.01 0.01 62 1010.9
20260510013101 84 0 0.0 0.0 0.00 0.01 0.01 60 1010.7
20260510011550 84 0 0.0 0.0 0.00 0.01 0.01 59 1010.4
20260510010053 85 0 0.0 0.0 0.00 0.01 0.01 58 1010.2
20260510004555 86 0 0.0 0.0 0.00 0.01 0.01 56 1010.0
20260510003056 88 0 0.0 0.0 0.00 0.01 0.01 55 1009.8
20260510001552 89 0 0.0 0.0 0.00 0.01 0.01 53 1009.9
20260510000049 91 0 0.0 0.0 0.00 0.01 0.01 51 1009.9
20260509234548 92 0 0.0 0.0 0.00 0.01 0.01 49 1010.0
20260509233053 92 0 0.0 0.0 0.00 0.01 0.01 49 1009.9
20260509231604 93 0 0.0 0.0 0.00 0.01 0.01 49 1009.9
20260509230055 93 0 0.0 0.0 0.00 0.01 0.01 45 1009.7
20260509224556 93 0 0.0 0.0 0.00 0.01 0.01 47 1009.8
20260509223104 93 0 0.0 0.0 0.00 0.01 0.01 44 1009.8
20260509221556 93 0 0.0 0.0 0.00 0.01 0.01 44 1009.9
20260509220058 93 0 0.0 0.0 0.00 0.01 0.01 46 1009.9
20260509214552 93 0 0.0 0.0 0.00 0.01 0.01 46 1009.8
20260509213055 92 0 0.0 0.0 0.00 0.01 0.01 48 1010.0
20260509211558 93 0 0.0 0.0 0.00 0.01 0.01 44 1010.3
20260509210105 93 0 0.0 0.0 0.00 0.01 0.01 46 1010.5
20260509204553 92 0 0.0 0.0 0.00 0.01 0.01 51 1010.6
20260509203054 92 0 0.0 2.0 0.00 0.01 0.01 49 1010.9
20260509201549 92 0 0.0 0.0 0.00 0.01 0.01 49 1011.3
20260509200054 91 0 0.0 0.0 0.00 0.01 0.01 53 1011.5
20260509194553 90 0 0.0 0.0 0.00 0.01 0.01 55 1011.9
20260509193052 90 0 0.0 0.0 0.00 0.01 0.01 56 1012.0
20260509191550 91 0 0.0 3.0 0.00 0.01 0.01 54 1012.1
20260509190050 90 0 0.0 0.0 0.00 0.01 0.01 59 1012.1
20260509184549 89 0 0.0 6.0 0.00 0.01 0.01 59 1012.3
20260509183049 89 0 0.0 5.0 0.00 0.01 0.01 59 1012.4
20260509181552 88 0 0.0 7.0 0.00 0.01 0.01 59 1012.7
20260509180050 87 0 0.0 0.0 0.00 0.01 0.01 60 1012.9
20260509174555 87 0 0.0 0.0 0.00 0.01 0.01 60 1012.9
20260509173117 85 0 0.0 0.0 0.00 0.01 0.01 63 1013.2
20260509171553 84 0 0.0 0.0 0.00 0.01 0.01 65 1013.3
20260509170117 84 0 0.0 3.0 0.00 0.01 0.01 68 1013.3
20260509164557 82 0 0.0 6.0 0.00 0.01 0.01 74 1013.1
20260509163052 81 0 0.0 5.0 0.00 0.01 0.01 75 1013.0
20260509161546 79 0 0.0 0.0 0.00 0.01 0.01 80 1013.2
20260509160050 78 0 0.0 0.0 0.00 0.01 0.01 81 1013.5
20260509154551 77 0 0.0 0.0 0.00 0.01 0.01 82 1013.9
20260509153049 74 0 0.0 0.0 0.00 0.01 0.01 75 1013.9
20260509151610 75 0 0.0 0.0 0.00 0.01 0.01 76 1014.0
20260509150052 75 0 0.0 0.0 0.00 0.01 0.01 76 1013.8
20260509144548 75 0 0.0 0.0 0.00 0.01 0.01 57 1013.7
20260509143103 74 0 0.0 0.0 0.00 0.01 0.01 56 1013.9
20260509141552 73 0 0.0 0.0 0.00 0.01 0.01 56 1013.8
20260509140048 73 0 0.0 0.0 0.00 0.01 0.01 56 1013.5
20260509134547 73 0 0.0 0.0 0.00 0.01 0.01 56 1012.9
20260509133050 73 0 0.0 4.0 0.00 0.01 0.01 56 1012.9
20260509131559 73 0 0.0 0.0 0.00 0.01 0.01 57 1012.8
20260509130121 72 0 0.0 0.0 0.01 0.01 0.01 57 1013.1
20260509124552 72 0 0.0 0.0 0.01 0.01 0.01 57 1013.1
20260509123117 72 0 0.0 0.0 0.01 0.01 0.01 57 1013.5
20260509121549 72 0 0.0 0.0 0.01 0.01 0.01 57 1013.6
20260509120053 72 0 0.0 0.0 0.00 0.00 0.00 58 1013.2
20260509114624 72 0 0.0 0.0 0.00 0.00 0.00 59 1012.9
20260509113127 72 0 0.0 0.0 0.00 0.00 0.00 61 1012.4
20260509111551 72 0 0.0 0.0 0.00 0.00 0.00 62 1012.5
20260509110059 72 0 0.0 0.0 0.00 0.00 0.00 64 1012.2
20260509104552 72 0 0.0 0.0 0.00 0.00 0.00 64 1012.4
20260509103102 72 0 0.0 0.0 0.00 0.00 0.00 63 1012.5
20260509101600 72 0 0.0 0.0 0.00 0.00 0.00 63 1012.4
20260509100051 72 0 0.0 0.0 0.00 0.00 0.00 63 1012.2
20260509094601 72 0 0.0 0.0 0.00 0.00 0.00 63 1011.6
20260509093052 72 0 0.0 0.0 0.00 0.00 0.00 64 1011.6
20260509091554 72 0 0.0 0.0 0.00 0.00 0.00 64 1011.2
20260509090051 72 0 0.0 0.0 0.00 0.00 0.00 63 1011.3
20260509084603 72 0 0.0 0.0 0.00 0.00 0.00 63 1011.3
20260509083049 72 0 0.0 0.0 0.00 0.00 0.00 64 1011.5
20260509081556 72 0 0.0 0.0 0.00 0.00 0.00 65 1011.6
20260509080056 72 0 0.0 0.0 0.00 0.00 0.00 67 1011.8
20260509074552 72 0 0.0 0.0 0.00 0.00 0.00 68 1011.7
20260509073051 72 0 0.0 0.0 0.00 0.00 0.00 71 1011.5
20260509071552 72 350 0.0 3.0 0.00 0.00 0.00 72 1011.8
20260509070053 73 0 0.0 0.0 0.00 0.00 0.00 74 1011.6
20260509064557 73 0 0.0 0.0 0.00 0.00 0.00 74 1012.1
20260509063047 73 0 0.0 0.0 0.00 0.00 0.00 74 1012.1
20260509061601 73 0 0.0 0.0 0.00 0.00 0.00 75 1012.4
20260509060053 73 0 0.0 0.0 0.00 0.00 0.00 76 1012.4
20260509054607 73 0 0.0 0.0 0.00 0.00 0.00 77 1012.5
20260509053059 73 0 0.0 2.0 0.00 0.00 0.00 78 1012.6